Time,TemperatureF,DewpointF,PressureIn,WindDirection,WindDirectionDegrees,WindSpeedMPH,WindSpeedGustMPH,Humidity,HourlyPrecipIn,Conditions,Clouds,dailyrainin,SolarRadiationWatts/m^2,SoftwareType,DateUTC
2013-11-29 00:42:00,38.0,16.0,-100.00,SE,135,3.0,6.0,40,-99.99,,,0.00,0.000000,,2013-11-29 07:42:00,
2013-11-29 00:52:00,38.0,16.0,-100.00,SE,135,3.0,6.0,40,-99.99,,,0.00,0.000000,,2013-11-29 07:52:00,
2013-11-29 01:01:00,38.0,16.0,-100.00,SE,135,3.0,6.0,40,-99.99,,,0.00,0.000000,,2013-11-29 08:01:00,
2013-11-29 01:42:00,37.0,16.0,-100.00,East,101,3.0,6.0,42,-99.99,,,0.00,0.000000,,2013-11-29 08:42:00,
2013-11-29 01:53:00,37.0,16.0,-100.00,East,101,3.0,6.0,42,-99.99,,,0.00,0.000000,,2013-11-29 08:53:00,
2013-11-29 02:02:00,37.0,16.0,-100.00,East,101,3.0,6.0,42,-99.99,,,0.00,0.000000,,2013-11-29 09:02:00,
2013-11-29 02:43:00,36.0,15.0,-100.00,NNW,330,2.0,6.0,42,-99.99,,,0.00,0.000000,,2013-11-29 09:43:00,
2013-11-29 02:52:00,36.0,15.0,-100.00,NNW,330,2.0,6.0,42,-99.99,,,0.00,0.000000,,2013-11-29 09:52:00,
2013-11-29 03:03:00,36.0,15.0,-100.00,NNW,330,2.0,6.0,42,-99.99,,,0.00,0.000000,,2013-11-29 10:03:00,
2013-11-29 03:52:00,37.0,20.0,-100.00,WSW,249,4.0,6.0,49,-99.99,,,0.00,0.000000,,2013-11-29 10:52:00,
2013-11-29 04:02:00,37.0,20.0,-100.00,WSW,249,4.0,6.0,49,-99.99,,,0.00,0.000000,,2013-11-29 11:02:00,
2013-11-29 04:42:00,36.0,16.0,-100.00,SSE,161,2.0,8.0,43,-99.99,,,0.00,0.000000,,2013-11-29 11:42:00,
2013-11-29 04:52:00,36.0,16.0,-100.00,SSE,161,2.0,8.0,43,-99.99,,,0.00,0.000000,,2013-11-29 11:52:00,
2013-11-29 05:02:00,36.0,16.0,-100.00,SSE,161,2.0,8.0,43,-99.99,,,0.00,0.000000,,2013-11-29 12:02:00,
2013-11-29 05:42:00,36.0,16.0,-100.00,WSW,252,2.0,6.0,43,-99.99,,,0.00,0.000000,,2013-11-29 12:42:00,
2013-11-29 06:52:00,36.0,15.0,-100.00,SSE,162,3.0,7.0,42,-99.99,,,0.00,0.000000,,2013-11-29 13:52:00,
2013-11-29 07:02:00,36.0,15.0,-100.00,SSE,162,3.0,7.0,42,-99.99,,,0.00,0.000000,,2013-11-29 14:02:00,
2013-11-29 07:42:00,37.0,17.0,-100.00,South,183,4.0,9.0,44,-99.99,,,0.00,0.000000,,2013-11-29 14:42:00,
2013-11-29 07:52:00,37.0,17.0,-100.00,South,183,4.0,9.0,44,-99.99,,,0.00,0.000000,,2013-11-29 14:52:00,
2013-11-29 08:02:00,37.0,17.0,-100.00,South,183,4.0,9.0,44,-99.99,,,0.00,0.000000,,2013-11-29 15:02:00,
2013-11-29 09:43:00,38.0,18.0,-100.00,ESE,121,7.0,9.0,43,-99.99,,,0.00,76.000000,,2013-11-29 16:43:00,
2013-11-29 09:53:00,38.0,18.0,-100.00,ESE,121,7.0,9.0,43,-99.99,,,0.00,76.000000,,2013-11-29 16:53:00,
2013-11-29 10:02:00,38.0,18.0,-100.00,ESE,121,7.0,9.0,43,-99.99,,,0.00,76.000000,,2013-11-29 17:02:00,
2013-11-29 12:42:00,43.0,19.0,-100.00,WSW,253,6.0,13.0,37,-99.99,,,0.00,317.000000,,2013-11-29 19:42:00,
2013-11-29 12:52:00,43.0,19.0,-100.00,WSW,253,6.0,13.0,37,-99.99,,,0.00,317.000000,,2013-11-29 19:52:00,
2013-11-29 13:02:00,43.0,19.0,-100.00,WSW,253,6.0,13.0,37,-99.99,,,0.00,317.000000,,2013-11-29 20:02:00,
2013-11-29 13:42:00,45.0,19.0,-100.00,West,264,8.0,12.0,35,0.00,,,0.00,398.000000,,2013-11-29 20:42:00,
2013-11-29 13:52:00,45.0,19.0,-100.00,West,264,8.0,12.0,35,0.00,,,0.00,398.000000,,2013-11-29 20:52:00,
2013-11-29 14:02:00,45.0,19.0,-100.00,West,264,8.0,12.0,35,0.00,,,0.00,398.000000,,2013-11-29 21:02:00,
2013-11-29 14:43:00,46.0,19.0,-100.00,West,273,8.0,16.0,34,0.00,,,0.00,399.000000,,2013-11-29 21:43:00,
2013-11-29 14:53:00,46.0,19.0,-100.00,West,273,8.0,16.0,34,0.00,,,0.00,399.000000,,2013-11-29 21:53:00,
2013-11-29 15:03:00,46.0,19.0,-100.00,West,273,8.0,16.0,34,0.00,,,0.00,399.000000,,2013-11-29 22:03:00,
2013-11-29 15:42:00,44.0,18.0,-100.00,WSW,254,6.0,15.0,35,0.00,,,0.00,287.000000,,2013-11-29 22:42:00,
2013-11-29 15:53:00,44.0,18.0,-100.00,WSW,254,6.0,15.0,35,0.00,,,0.00,287.000000,,2013-11-29 22:53:00,
2013-11-29 16:02:00,44.0,18.0,-100.00,WSW,254,6.0,15.0,35,0.00,,,0.00,287.000000,,2013-11-29 23:02:00,
2013-11-29 16:42:00,42.0,18.0,-100.00,West,260,7.0,13.0,38,0.00,,,0.00,55.000000,,2013-11-29 23:42:00,
2013-11-29 16:52:00,42.0,18.0,-100.00,West,260,7.0,13.0,38,0.00,,,0.00,55.000000,,2013-11-29 23:52:00,
2013-11-29 17:01:00,42.0,18.0,-100.00,West,260,7.0,13.0,38,0.00,,,0.00,55.000000,,2013-11-30 00:01:00,
2013-11-29 17:42:00,41.0,20.0,-100.00,WSW,247,9.0,18.0,43,0.00,,,0.00,19.000000,,2013-11-30 00:42:00,
2013-11-29 17:52:00,41.0,20.0,-100.00,WSW,247,9.0,18.0,43,0.00,,,0.00,19.000000,,2013-11-30 00:52:00,
2013-11-29 18:01:00,41.0,20.0,-100.00,WSW,247,9.0,18.0,43,0.00,,,0.00,19.000000,,2013-11-30 01:01:00,
2013-11-29 18:42:00,40.0,20.0,-100.00,West,262,10.0,20.0,44,0.00,,,0.00,0.000000,,2013-11-30 01:42:00,
2013-11-29 18:52:00,40.0,20.0,-100.00,West,262,10.0,20.0,44,0.00,,,0.00,0.000000,,2013-11-30 01:52:00,
2013-11-29 19:01:00,40.0,20.0,-100.00,West,262,10.0,20.0,44,0.00,,,0.00,0.000000,,2013-11-30 02:01:00,
2013-11-29 19:42:00,40.0,21.0,-100.00,West,267,11.0,20.0,46,0.00,,,0.00,0.000000,,2013-11-30 02:42:00,
2013-11-29 19:52:00,40.0,21.0,-100.00,West,267,11.0,20.0,46,0.00,,,0.00,0.000000,,2013-11-30 02:52:00,
2013-11-29 20:02:00,40.0,21.0,-100.00,West,267,11.0,20.0,46,0.00,,,0.00,0.000000,,2013-11-30 03:02:00,
2013-11-29 20:43:00,39.0,20.0,-100.00,West,271,8.0,21.0,47,0.00,,,-99.99,0.000000,,2013-11-30 03:43:00,
2013-11-29 20:53:00,39.0,20.0,-100.00,West,271,8.0,21.0,47,0.00,,,-99.99,0.000000,,2013-11-30 03:53:00,
2013-11-29 21:03:00,39.0,20.0,-100.00,West,271,8.0,21.0,47,0.00,,,-99.99,0.000000,,2013-11-30 04:03:00,
2013-11-29 21:43:00,39.0,23.0,-100.00,West,271,15.0,25.0,53,0.00,,,-99.99,0.000000,,2013-11-30 04:43:00,
2013-11-29 21:53:00,39.0,23.0,-100.00,West,271,15.0,25.0,53,0.00,,,-99.99,0.000000,,2013-11-30 04:53:00,
2013-11-29 22:02:00,39.0,23.0,-100.00,West,271,15.0,25.0,53,0.00,,,-99.99,0.000000,,2013-11-30 05:02:00,
2013-11-29 22:43:00,37.0,25.0,-100.00,West,260,10.0,24.0,62,0.00,,,0.00,0.000000,,2013-11-30 05:43:00,
2013-11-29 22:53:00,37.0,25.0,-100.00,West,260,10.0,24.0,62,0.00,,,0.00,0.000000,,2013-11-30 05:53:00,
2013-11-29 23:02:00,37.0,25.0,-100.00,West,260,10.0,24.0,62,0.00,,,0.00,0.000000,,2013-11-30 06:02:00,
2013-11-29 23:42:00,37.0,27.0,-100.00,West,266,13.0,21.0,67,0.00,,,0.00,0.000000,,2013-11-30 06:42:00,
2013-11-29 23:52:00,37.0,27.0,-100.00,West,266,13.0,21.0,67,0.00,,,0.00,0.000000,,2013-11-30 06:52:00,